Flag for Canada Weather past 2 weeks in Cambridge, Ontario, Canada

Now
34 °F

Clear.


Feels Like: 29 °F
Forecast: 36 / 65 °F
Wind: 6 mph from East

Location: Waterloo Well


UV Index: 5 (Moderate)

Visibility: 9 mi


Pressure: 30.38 "Hg

Humidity: 75%

Dew point: 27 °F

Location of CambridgeLocation

Historic Weather in Cambridge

°F

Cambridge temperature yesterday

Maximum temperature yesterday: 54 °F (at 4:00 PM)
Minimum temperature yesterday: 27 °F (at 6:00 AM)
Average temperature yesterday: 40 °F

Past Weeks' High & Low Weather Summary

 TemperatureHumidityPressure
High70 °F (Apr 13, 6:00 PM)100% (Apr 7, 9:00 PM)30.54 "Hg (Apr 7, 9:00 PM)
Low18 °F (Apr 16, 4:00 AM)25% (Apr 11, 2:00 PM)29.34 "Hg (Apr 8, 4:01 AM)
Average41 °F71%30.01 "Hg
* Reported Apr 5 5:00 AM — Apr 20 5:00 AM, Cambridge, Weather by CustomWeather, © 2014

Note: Actual official high and low records may vary slightly from our data, if they occured in-between our weather recording intervals... More about our weather records

Advertising

Historic Weather Conditions — Data for Previous 24 hours

 ConditionsComfort  
Time TempWeatherWind HumidityBarometerVisibility
5:00 AM
Apr 20
36 °FClear.5 mph65%30.39 "Hg9 mi
4:00 AM34 °FClear.10 mph75%30.38 "Hg9 mi
3:00 AM34 °FClear.9 mph81%30.39 "Hg9 mi
2:00 AM34 °FClear.9 mph81%30.41 "Hg9 mi
1:00 AM34 °FClear.7 mph81%30.42 "Hg9 mi
12:00 AM36 °FClear.5 mph81%30.41 "Hg9 mi
11:00 PM
Apr 19
37 °FClear.6 mph70%30.41 "Hg9 mi
10:00 PM39 °FClear.6 mph65%30.41 "Hg9 mi
9:00 PM41 °FSunny.8 mph61%30.39 "Hg9 mi
8:00 PM46 °FSunny.9 mph53%30.38 "Hg9 mi
7:00 PM52 °FSunny.8 mph41%30.40 "Hg9 mi
6:00 PM54 °FSunny.12 mph33%30.40 "Hg9 mi
5:00 PM54 °FSunny.6 mph33%30.40 "Hg9 mi
4:00 PM54 °FSunny.6 mph35%30.41 "Hg9 mi
3:00 PM52 °FSunny.7 mph41%30.42 "Hg8 mi
2:00 PM50 °FSunny.12 mph43%30.45 "Hg9 mi
1:00 PM46 °FSunny.6 mph46%30.46 "Hg9 mi
12:00 PM46 °FSunny.7 mph50%30.47 "Hg9 mi
11:00 AM45 °FSunny.9 mph57%30.47 "Hg9 mi
10:00 AM41 °FSunny.12 mph66%30.47 "Hg9 mi
9:00 AM37 °FSunny.8 mph81%30.47 "Hg9 mi
8:00 AM34 °FSunny.7 mph87%30.45 "Hg9 mi
7:00 AM28 °FClear.8 mph93%30.43 "Hg9 mi
6:00 AM27 °FClear.2 mph100%30.41 "Hg9 mi
Weather by CustomWeather, © 2014

See weather overview